Météo par heure à Abadeh

Ce jour, 14 Avril, Mercredi

Heure Température Précipitation Vent Pression Humidité
00:00 +12°C° 0.3 mm 2 m/s 591 mmHg 61%
01:00 +12°C° 0.3 mm 2 m/s 591 mmHg 63%
02:00 +10°C° 0.1 mm 2 m/s 591 mmHg 64%
03:00 +10°C° 0.1 mm 2 m/s 590 mmHg 65%
04:00 +9°C° 0 mm 2 m/s 590 mmHg 66%
05:00 +10°C° 0.2 mm 1 m/s 591 mmHg 66%
06:00 +10°C° 0.2 mm 1 m/s 591 mmHg 65%
07:00 +11°C° 0.2 mm 1 m/s 591 mmHg 64%
08:00 +12°C° 0 mm 1 m/s 592 mmHg 55%
09:00 +14°C° 0 mm 1 m/s 592 mmHg 46%
10:00 +15°C° 0 mm 0 m/s 593 mmHg 37%
11:00 +18°C° 0 mm 1 m/s 593 mmHg 32%
12:00 +20°C° 0 mm 1 m/s 593 mmHg 26%
13:00 +21°C° 0 mm 1 m/s 592 mmHg 21%
14:00 +20°C° 0 mm 3 m/s 592 mmHg 21%
15:00 +20°C° 0 mm 4 m/s 591 mmHg 20%
16:00 +20°C° 0 mm 5 m/s 591 mmHg 21%
17:00 +19°C° 0.2 mm 5 m/s 591 mmHg 26%
18:00 +16°C° 0.2 mm 5 m/s 591 mmHg 31%
19:00 +15°C° 0.2 mm 4 m/s 590 mmHg 36%
20:00 +15°C° 0.1 mm 4 m/s 591 mmHg 36%
21:00 +16°C° 0.1 mm 3 m/s 591 mmHg 36%
22:00 +16°C° 0.1 mm 3 m/s 591 mmHg 36%
23:00 +14°C° 0.1 mm 3 m/s 591 mmHg 38%

Demain, 15 Avril, Jeudi

Heure Température Précipitation Vent Pression Humidité
00:00 +14°C° 0.1 mm 4 m/s 590 mmHg 40%
01:00 +13°C° 0.1 mm 4 m/s 590 mmHg 41%
02:00 +13°C° 0.2 mm 4 m/s 590 mmHg 44%
03:00 +12°C° 0.2 mm 3 m/s 590 mmHg 46%
04:00 +11°C° 0.2 mm 3 m/s 589 mmHg 49%
05:00 +13°C° 0 mm 2 m/s 590 mmHg 47%
06:00 +13°C° 0 mm 2 m/s 590 mmHg 46%
07:00 +13°C° 0 mm 2 m/s 590 mmHg 44%
08:00 +14°C° 0 mm 2 m/s 591 mmHg 40%
09:00 +15°C° 0 mm 2 m/s 591 mmHg 35%
10:00 +16°C° 0 mm 2 m/s 592 mmHg 31%
11:00 +18°C° 0 mm 2 m/s 592 mmHg 27%
12:00 +19°C° 0 mm 2 m/s 592 mmHg 24%
13:00 +20°C° 0 mm 2 m/s 592 mmHg 21%
14:00 +20°C° 0 mm 2 m/s 592 mmHg 18%
15:00 +21°C° 0 mm 3 m/s 591 mmHg 15%
16:00 +22°C° 0 mm 4 m/s 591 mmHg 13%
17:00 +21°C° 0 mm 3 m/s 591 mmHg 13%
18:00 +21°C° 0 mm 3 m/s 591 mmHg 14%
19:00 +20°C° 0 mm 3 m/s 591 mmHg 14%
20:00 +19°C° 0 mm 2 m/s 591 mmHg 17%
21:00 +19°C° 0 mm 1 m/s 590 mmHg 20%
22:00 +19°C° 0 mm 1 m/s 590 mmHg 23%
23:00 +18°C° 0 mm 1 m/s 590 mmHg 25%

Après-demain, 16 Avril, Vendredi

Heure Température Précipitation Vent Pression Humidité
00:00 +16°C° 0 mm 1 m/s 590 mmHg 27%
01:00 +16°C° 0 mm 1 m/s 589 mmHg 29%
02:00 +15°C° 0 mm 1 m/s 589 mmHg 32%
03:00 +14°C° 0 mm 1 m/s 589 mmHg 34%
04:00 +14°C° 0 mm 1 m/s 588 mmHg 37%
05:00 +14°C° 0 mm 1 m/s 589 mmHg 37%
06:00 +14°C° 0 mm 1 m/s 589 mmHg 37%
07:00 +14°C° 0 mm 1 m/s 589 mmHg 37%
08:00 +15°C° 0 mm 1 m/s 590 mmHg 32%
09:00 +18°C° 0 mm 1 m/s 591 mmHg 28%
10:00 +19°C° 0 mm 1 m/s 591 mmHg 23%
11:00 +21°C° 0 mm 1 m/s 592 mmHg 19%
12:00 +21°C° 0 mm 2 m/s 592 mmHg 15%
13:00 +23°C° 0 mm 2 m/s 592 mmHg 11%
14:00 +22°C° 0 mm 3 m/s 591 mmHg 9%
15:00 +24°C° 0 mm 3 m/s 591 mmHg 8%
16:00 +23°C° 0 mm 4 m/s 591 mmHg 7%
17:00 +23°C° 0 mm 4 m/s 591 mmHg 7%
18:00 +22°C° 0 mm 4 m/s 591 mmHg 8%
19:00 +21°C° 0 mm 4 m/s 590 mmHg 9%
20:00 +20°C° 0 mm 3 m/s 591 mmHg 11%
21:00 +19°C° 0 mm 3 m/s 591 mmHg 13%
22:00 +18°C° 0 mm 2 m/s 591 mmHg 15%
23:00 +17°C° 0 mm 2 m/s 591 mmHg 15%

17 Avril, Samedi

Heure Température Précipitation Vent Pression Humidité
00:00 +17°C° 0 mm 2 m/s 590 mmHg 16%
01:00 +16°C° 0 mm 2 m/s 590 mmHg 16%
02:00 +15°C° 0 mm 2 m/s 590 mmHg 21%
03:00 +14°C° 0 mm 3 m/s 590 mmHg 25%
04:00 +13°C° 0 mm 3 m/s 590 mmHg 29%
05:00 +13°C° 0 mm 3 m/s 590 mmHg 32%
06:00 +14°C° 0 mm 2 m/s 591 mmHg 36%
07:00 +14°C° 0 mm 2 m/s 592 mmHg 39%
08:00 +14°C° 0 mm 3 m/s 592 mmHg 35%
09:00 +17°C° 0 mm 3 m/s 593 mmHg 30%
10:00 +18°C° 0 mm 3 m/s 593 mmHg 26%
11:00 +19°C° 0 mm 3 m/s 593 mmHg 23%
12:00 +20°C° 0 mm 3 m/s 593 mmHg 19%
13:00 +21°C° 0 mm 3 m/s 593 mmHg 16%
14:00 +22°C° 0 mm 4 m/s 593 mmHg 15%
15:00 +22°C° 0 mm 4 m/s 593 mmHg 14%
16:00 +23°C° 0 mm 5 m/s 593 mmHg 12%
17:00 +22°C° 0 mm 6 m/s 593 mmHg 14%
18:00 +21°C° 0 mm 6 m/s 593 mmHg 15%
19:00 +21°C° 0 mm 7 m/s 593 mmHg 16%
20:00 +20°C° 0 mm 6 m/s 593 mmHg 19%
21:00 +19°C° 0 mm 4 m/s 593 mmHg 21%
22:00 +18°C° 0 mm 3 m/s 593 mmHg 23%
23:00 +18°C° 0 mm 2 m/s 593 mmHg 25%

18 Avril, Dimanche

Heure Température Précipitation Vent Pression Humidité
00:00 +17°C° 0 mm 2 m/s 593 mmHg 26%
01:00 +18°C° 0 mm 1 m/s 592 mmHg 27%
02:00 +16°C° 0 mm 1 m/s 592 mmHg 28%
03:00 +16°C° 0 mm 1 m/s 592 mmHg 29%
04:00 +16°C° 0 mm 1 m/s 592 mmHg 30%
05:00 +16°C° 0 mm 1 m/s 593 mmHg 30%
06:00 +16°C° 0 mm 1 m/s 593 mmHg 30%
07:00 +16°C° 0 mm 1 m/s 593 mmHg 30%
08:00 +18°C° 0 mm 1 m/s 594 mmHg 27%
09:00 +19°C° 0 mm 1 m/s 594 mmHg 25%
10:00 +19°C° 0 mm 2 m/s 595 mmHg 22%
11:00 +20°C° 0 mm 2 m/s 595 mmHg 20%
12:00 +22°C° 0 mm 3 m/s 595 mmHg 18%
13:00 +23°C° 0 mm 4 m/s 595 mmHg 16%
14:00 +23°C° 0 mm 4 m/s 594 mmHg 17%
15:00 +22°C° 0 mm 4 m/s 594 mmHg 17%
16:00 +22°C° 0 mm 5 m/s 593 mmHg 18%
17:00 +22°C° 0 mm 4 m/s 593 mmHg 19%
18:00 +21°C° 0 mm 4 m/s 593 mmHg 20%
19:00 +21°C° 0 mm 3 m/s 593 mmHg 21%
20:00 +20°C° 0 mm 3 m/s 593 mmHg 22%
21:00 +19°C° 0 mm 2 m/s 593 mmHg 24%
22:00 +20°C° 0 mm 1 m/s 593 mmHg 26%
23:00 +19°C° 0 mm 1 m/s 593 mmHg 27%

19 Avril, Lundi

Heure Température Précipitation Vent Pression Humidité
00:00 +18°C° 0 mm 1 m/s 592 mmHg 28%
01:00 +18°C° 0 mm 1 m/s 592 mmHg 29%
02:00 +16°C° 0 mm 1 m/s 592 mmHg 30%
03:00 +16°C° 0 mm 1 m/s 591 mmHg 31%
04:00 +15°C° 0 mm 1 m/s 591 mmHg 32%
05:00 +15°C° 0 mm 1 m/s 591 mmHg 32%
06:00 +16°C° 0 mm 1 m/s 592 mmHg 31%
07:00 +16°C° 0 mm 1 m/s 592 mmHg 31%
08:00 +19°C° 0 mm 1 m/s 592 mmHg 27%
09:00 +18°C° 0 mm 0 m/s 593 mmHg 23%
10:00 +20°C° 0 mm 0 m/s 594 mmHg 19%
11:00 +21°C° 0 mm 0 m/s 594 mmHg 17%
12:00 +24°C° 0 mm 1 m/s 593 mmHg 15%
13:00 +25°C° 0 mm 1 m/s 593 mmHg 12%
14:00 +25°C° 0 mm 2 m/s 593 mmHg 12%
15:00 +26°C° 0 mm 3 m/s 593 mmHg 11%
16:00 +26°C° 0 mm 3 m/s 593 mmHg 10%
17:00 +26°C° 0 mm 4 m/s 593 mmHg 11%
18:00 +25°C° 0 mm 4 m/s 593 mmHg 12%
19:00 +25°C° 0 mm 4 m/s 592 mmHg 12%
20:00 +24°C° 0 mm 3 m/s 592 mmHg 14%
21:00 +23°C° 0 mm 2 m/s 592 mmHg 15%
22:00 +22°C° 0 mm 1 m/s 592 mmHg 16%
23:00 +21°C° 0 mm 1 m/s 592 mmHg 17%
Voir plus

Nous avons besoin de votre consentement

Meteoprog et ses fournisseurs de services peuvent stocker et accéder à des données personnelles telles que des cookies, des identifiants d'appareils ou d'autres technologies similaires sur votre appareil et traiter ces données pour personnaliser le contenu et les publicités, ainsi que pour fournir des fonctionnalités de médias sociaux et analyser le trafic.

  • Stocker et/ou accéder à des informations sur votre appareil

    Des cookies, des identifiants d'appareils ou d'autres informations peuvent être stockés ou accessibles sur votre appareil aux fins indiquées ci-dessus.

  • Annonces et contenus personnalisés, mesure des annonces et des contenus, connaissance de l'audience et développement de produits

    Les annonces et le contenu peuvent être personnalisés en fonction d'un profil. D'autres données peuvent être ajoutées pour mieux personnaliser les annonces et le contenu. Les performances des publicités et du contenu peuvent être mesurées. Il est possible d'obtenir des informations sur le public qui a vu les publicités et le contenu. Ces données peuvent être utilisées pour développer ou améliorer l'expérience de l'utilisateur, les systèmes et les logiciels.

En cliquant sur "J'accepte", vous autorisez l'utilisation de cookies, des identifiants d'appareils, des balises web ou d'autres technologies similaires. Vos paramètres peuvent être modifiés dans le navigateur de votre appareil.

Dans certains cas, des intérêts légitimes peuvent être invoqués plutôt qu'un consentement. Vous pouvez en savoir plus à ce sujet dans notre Politique de confidentialité et de cookies.